When you browse on this site, cookies collect data to enhance your experience and personalize the content and advertising you see.
Visit our Privacy Policy to learn more. By continuing to use the site, you agree to this use of cookies and data.
  • In Hungary
  • List of Countries
  • For 7 days
  • Water Temperature
  • Satellite Maps
  • Weather Map
  • News
  • Weather Widgets
  • user-avatar
    Login

    Hourly Weather Denia

    Today, 26 June, Wednesday

    Time Temperature Precipitation Wind Pressure Humidity
    00:00 +22°C° 0 mm 5 mps 758 mmHg 93%
    01:00 +22°C° 0 mm 5 mps 757 mmHg 93%
    02:00 +22°C° 0 mm 6 mps 757 mmHg 93%
    03:00 +22°C° 0 mm 6 mps 757 mmHg 93%
    04:00 +22°C° 0 mm 6 mps 757 mmHg 93%
    05:00 +23°C° 0 mm 6 mps 757 mmHg 92%
    06:00 +23°C° 0 mm 5 mps 758 mmHg 91%
    07:00 +24°C° 0 mm 6 mps 758 mmHg 88%
    08:00 +24°C° 0 mm 6 mps 758 mmHg 84%
    09:00 +26°C° 0 mm 7 mps 758 mmHg 80%
    10:00 +27°C° 0 mm 6 mps 758 mmHg 74%
    11:00 +28°C° 0 mm 5 mps 758 mmHg 67%
    12:00 +30°C° 0 mm 4 mps 758 mmHg 60%
    13:00 +30°C° 0 mm 4 mps 758 mmHg 59%
    14:00 +30°C° 0 mm 4 mps 758 mmHg 58%
    15:00 +32°C° 0 mm 4 mps 757 mmHg 57%
    16:00 +30°C° 0 mm 5 mps 757 mmHg 59%
    17:00 +29°C° 0 mm 5 mps 757 mmHg 61%
    18:00 +28°C° 0 mm 5 mps 757 mmHg 64%
    19:00 +26°C° 0 mm 5 mps 758 mmHg 73%
    20:00 +25°C° 0 mm 5 mps 758 mmHg 81%
    21:00 +22°C° 0 mm 5 mps 758 mmHg 90%
    22:00 +22°C° 0 mm 5 mps 759 mmHg 88%
    23:00 +22°C° 0 mm 5 mps 759 mmHg 86%

    Tomorrow, 27 June, Thursday

    Time Temperature Precipitation Wind Pressure Humidity
    00:00 +22°C° 0 mm 5 mps 759 mmHg 84%
    01:00 +22°C° 0 mm 5 mps 758 mmHg 87%
    02:00 +22°C° 0 mm 6 mps 758 mmHg 89%
    03:00 +21°C° 0 mm 6 mps 758 mmHg 91%
    04:00 +22°C° 0 mm 6 mps 758 mmHg 89%
    05:00 +22°C° 0 mm 6 mps 758 mmHg 87%
    06:00 +23°C° 0 mm 6 mps 758 mmHg 85%
    07:00 +24°C° 0 mm 6 mps 759 mmHg 76%
    08:00 +27°C° 0 mm 5 mps 759 mmHg 67%
    09:00 +29°C° 0 mm 5 mps 759 mmHg 59%
    10:00 +30°C° 0 mm 5 mps 759 mmHg 55%
    11:00 +30°C° 0 mm 4 mps 759 mmHg 51%
    12:00 +32°C° 0 mm 4 mps 759 mmHg 48%
    13:00 +32°C° 0 mm 4 mps 759 mmHg 46%
    14:00 +33°C° 0 mm 3 mps 758 mmHg 45%
    15:00 +33°C° 0 mm 3 mps 758 mmHg 43%
    16:00 +31°C° 0 mm 3 mps 758 mmHg 46%
    17:00 +30°C° 0 mm 3 mps 758 mmHg 49%
    18:00 +30°C° 0 mm 3 mps 758 mmHg 51%
    19:00 +28°C° 0 mm 3 mps 758 mmHg 56%
    20:00 +27°C° 0 mm 3 mps 758 mmHg 60%
    21:00 +25°C° 0 mm 3 mps 758 mmHg 64%
    22:00 +25°C° 0 mm 3 mps 758 mmHg 63%
    23:00 +25°C° 0 mm 3 mps 758 mmHg 61%

    Day after tomorrow, 28 June, Friday

    Time Temperature Precipitation Wind Pressure Humidity
    00:00 +25°C° 0 mm 3 mps 758 mmHg 60%
    01:00 +25°C° 0 mm 3 mps 758 mmHg 61%
    02:00 +24°C° 0 mm 3 mps 758 mmHg 63%
    03:00 +24°C° 0 mm 3 mps 757 mmHg 64%
    04:00 +25°C° 0 mm 3 mps 757 mmHg 60%
    05:00 +26°C° 0 mm 2 mps 757 mmHg 56%
    06:00 +27°C° 0 mm 2 mps 757 mmHg 52%
    07:00 +29°C° 0 mm 2 mps 757 mmHg 46%
    08:00 +31°C° 0 mm 2 mps 757 mmHg 41%
    09:00 +34°C° 0 mm 2 mps 757 mmHg 36%
    10:00 +34°C° 0 mm 2 mps 757 mmHg 35%
    11:00 +35°C° 0 mm 2 mps 757 mmHg 33%
    12:00 +35°C° 0 mm 3 mps 757 mmHg 32%
    13:00 +35°C° 0 mm 3 mps 757 mmHg 31%
    14:00 +35°C° 0 mm 3 mps 756 mmHg 30%
    15:00 +35°C° 0 mm 4 mps 756 mmHg 30%
    16:00 +35°C° 0 mm 4 mps 756 mmHg 32%
    17:00 +34°C° 0 mm 4 mps 756 mmHg 34%
    18:00 +33°C° 0 mm 4 mps 756 mmHg 36%
    19:00 +30°C° 0 mm 4 mps 756 mmHg 39%
    20:00 +29°C° 0 mm 4 mps 756 mmHg 41%
    21:00 +27°C° 0 mm 4 mps 756 mmHg 44%
    22:00 +27°C° 0 mm 4 mps 756 mmHg 46%
    23:00 +26°C° 0 mm 3 mps 756 mmHg 48%

    29 June, Saturday

    Time Temperature Precipitation Wind Pressure Humidity
    00:00 +26°C° 0 mm 3 mps 756 mmHg 50%
    01:00 +25°C° 0 mm 2 mps 756 mmHg 51%
    02:00 +24°C° 0 mm 2 mps 755 mmHg 52%
    03:00 +24°C° 0 mm 1 mps 755 mmHg 52%
    04:00 +25°C° 0 mm 1 mps 755 mmHg 50%
    05:00 +25°C° 0 mm 0 mps 755 mmHg 48%
    06:00 +27°C° 0 mm 0 mps 755 mmHg 46%
    07:00 +31°C° 0 mm 1 mps 755 mmHg 40%
    08:00 +33°C° 0 mm 1 mps 756 mmHg 35%
    09:00 +36°C° 0 mm 2 mps 756 mmHg 29%
    10:00 +36°C° 0 mm 2 mps 756 mmHg 28%
    11:00 +37°C° 0 mm 3 mps 756 mmHg 27%
    12:00 +37°C° 0 mm 4 mps 756 mmHg 27%
    13:00 +37°C° 0 mm 4 mps 756 mmHg 26%
    14:00 +37°C° 0 mm 4 mps 755 mmHg 26%
    15:00 +37°C° 0 mm 4 mps 755 mmHg 26%
    16:00 +36°C° 0 mm 4 mps 756 mmHg 28%
    17:00 +35°C° 0 mm 3 mps 756 mmHg 29%
    18:00 +35°C° 0 mm 3 mps 756 mmHg 30%
    19:00 +31°C° 0 mm 2 mps 756 mmHg 35%
    20:00 +29°C° 0 mm 2 mps 756 mmHg 39%
    21:00 +26°C° 0 mm 2 mps 757 mmHg 44%
    22:00 +26°C° 0 mm 2 mps 757 mmHg 45%
    23:00 +25°C° 0 mm 2 mps 757 mmHg 47%

    30 June, Sunday

    Time Temperature Precipitation Wind Pressure Humidity
    00:00 +25°C° 0 mm 1 mps 757 mmHg 48%
    01:00 +24°C° 0 mm 1 mps 757 mmHg 48%
    02:00 +24°C° 0 mm 1 mps 757 mmHg 49%
    03:00 +24°C° 0 mm 2 mps 756 mmHg 49%
    04:00 +25°C° 0 mm 2 mps 757 mmHg 46%
    05:00 +26°C° 0 mm 3 mps 757 mmHg 44%
    06:00 +28°C° 0 mm 4 mps 757 mmHg 41%
    07:00 +29°C° 0 mm 3 mps 757 mmHg 40%
    08:00 +31°C° 0 mm 3 mps 758 mmHg 39%
    09:00 +33°C° 0 mm 3 mps 758 mmHg 38%
    10:00 +34°C° 0 mm 3 mps 758 mmHg 35%
    11:00 +35°C° 0 mm 3 mps 758 mmHg 33%
    12:00 +36°C° 0 mm 3 mps 758 mmHg 31%
    13:00 +36°C° 0 mm 3 mps 758 mmHg 31%
    14:00 +36°C° 0 mm 3 mps 757 mmHg 32%
    15:00 +35°C° 0 mm 3 mps 757 mmHg 33%
    16:00 +34°C° 0 mm 3 mps 757 mmHg 38%
    17:00 +32°C° 0 mm 2 mps 757 mmHg 43%
    18:00 +31°C° 0 mm 2 mps 757 mmHg 48%
    19:00 +29°C° 0 mm 2 mps 757 mmHg 55%
    20:00 +28°C° 0 mm 2 mps 758 mmHg 61%
    21:00 +26°C° 0 mm 2 mps 758 mmHg 68%
    22:00 +25°C° 0 mm 2 mps 758 mmHg 70%
    23:00 +25°C° 0 mm 2 mps 758 mmHg 73%

    1 July, Monday

    Time Temperature Precipitation Wind Pressure Humidity
    00:00 +24°C° 0 mm 2 mps 758 mmHg 75%
    01:00 +24°C° 0 mm 2 mps 757 mmHg 74%
    02:00 +24°C° 0 mm 2 mps 757 mmHg 73%
    03:00 +24°C° 0 mm 2 mps 757 mmHg 73%
    04:00 +25°C° 0 mm 3 mps 757 mmHg 69%
    05:00 +25°C° 0 mm 3 mps 757 mmHg 65%
    06:00 +26°C° 0 mm 3 mps 757 mmHg 62%
    07:00 +28°C° 0 mm 3 mps 757 mmHg 56%
    08:00 +30°C° 0 mm 3 mps 757 mmHg 50%
    09:00 +33°C° 0 mm 3 mps 757 mmHg 44%
    10:00 +33°C° 0 mm 3 mps 757 mmHg 45%
    11:00 +34°C° 0 mm 2 mps 757 mmHg 46%
    12:00 +34°C° 0 mm 2 mps 757 mmHg 46%
    13:00 +34°C° 0 mm 2 mps 757 mmHg 47%
    14:00 +34°C° 0 mm 3 mps 756 mmHg 47%
    15:00 +33°C° 0 mm 3 mps 756 mmHg 47%
    16:00 +33°C° 0 mm 3 mps 756 mmHg 49%
    17:00 +31°C° 0 mm 3 mps 755 mmHg 50%
    18:00 +31°C° 0 mm 3 mps 755 mmHg 52%
    19:00 +29°C° 0 mm 2 mps 755 mmHg 58%
    20:00 +27°C° 0 mm 2 mps 756 mmHg 65%
    21:00 +26°C° 0 mm 1 mps 756 mmHg 72%
    22:00 +25°C° 0 mm 2 mps 756 mmHg 77%
    23:00 +24°C° 0 mm 2 mps 756 mmHg 83%
    Show more